Regional Weather Roundup
Issued by NWS

Home | Current Version | Previous Version | Graphics & Text | Print | Product List | Glossary Off
Versions: 1 2 3 4 5 6 7 8 9 10 11 12 13 14 15 16 17 18 19 20 21 22 23 24 25 26 27 28 29 30 31 32 33 34 35 36 37 38 39 40 41 42 43 44 45 46 47 48 49 50

272
ASUS43 KMPX 201410
RWRMN
WEATHER ROUNDUP FOR MINNESOTA
NATIONAL WEATHER SERVICE TWIN CITIES/CHANHASSEN MN
900 AM CDT SUN MAY 20 2018


NOTE: "FAIR" INDICATES FEW OR NO CLOUDS BELOW 12,000 FEET WITH NO
SIGNIFICANT WEATHER AND/OR OBSTRUCTIONS TO VISIBILITY. N/A MEANS
CURRENT SKY AND/OR WEATHER CONDITIONS ARE NOT AVAILABLE.

MNZ060>063-068>070-201500-
   Twin Cities Metro

CITY           SKY/WX    TMP DP  RH WIND       PRES   REMARKS
TWIN CITIES    PTSUNNY   51  36  56 E14       30.24R
ST PAUL        FAIR      50  36  58 E9        30.25R
CRYSTAL        FAIR      51  35  54 NE12G18   30.23R
BLAINE         PTSUNNY   52  37  58 NE12G18   30.24S
LAKEVILLE      PTSUNNY   48  39  71 NE9G16    30.23R
EDEN PRAIRIE   FAIR      51  36  56 E14       30.23R
SOUTH ST PAUL  FAIR      50  36  58 E10       30.24R
LAKE ELMO      FAIR      50  37  62 NE10      30.26R
$$
MNZ001>005-007-008-013>017-022>024-027-028-201500-
   Northwest Minnesota

CITY           SKY/WX    TMP DP  RH WIND       PRES   REMARKS
BEMIDJI        FAIR      54  37  52 SW6       30.28S
HALLOCK        FAIR      55  43  62 S7        30.23S
ROSEAU         FAIR      55  45  67 SW5       30.24S
WARROAD        FAIR      54  43  66 SW5       30.24S
THIEF RVR FALL FAIR      57  36  45 SW8       30.27F
CROOKSTON      FAIR      57  37  47 S8        30.27S
FOSSTON        FAIR      54  37  54 SW7       30.28S
DETROIT LAKES  FAIR      54  39  58 SE3       30.30R
MOORHEAD       FAIR      55  36  47 S5        30.30R
PARK RAPIDS    FAIR      52  41  66 CALM      30.28S
MAHNOMEN       FAIR      54  39  57 SW7       30.28S
$$
MNZ006-009>011-018-025>026-201500-
   North Central Minnesota

CITY           SKY/WX    TMP DP  RH WIND       PRES   REMARKS
BAUDETTE       FAIR      57  37  47 SW8       30.24R
FLAG ISLAND    FAIR      50  37  62 SE5       30.21S
INTL FALLS     FAIR      56  36  47 W6        30.25R
WASKISH        FAIR      55  39  54 W9        30.27R
BIG FORK       FAIR      55  39  54 SW3       30.26S
LONGVILLE      FAIR      48  39  71 CALM      30.29R
GRAND RAPIDS   FAIR      49  39  68 S5        30.31R
CRANE LAKE     FAIR      52  37  58 S6        30.28S
ORR            FAIR      52  36  54 CALM      30.25S
COOK           FAIR      48  37  66 CALM      30.28S
WALKER         FAIR      51  39  63 CALM      30.28S
$$
MNZ012-019>021-037-201500-
   Northeast Minnesota

CITY           SKY/WX    TMP DP  RH WIND       PRES   REMARKS
DULUTH         FAIR      51  23  33 SE12      30.28R
ELY            FAIR      48  36  61 SW7       30.27S
HIBBING        FAIR      48  37  65 S3        30.28S
EVELETH        FAIR      50  37  62 CALM      30.29S
DULUTH HARBOR  FAIR      46  39  76 CALM      30.31R
TWO HARBORS    FAIR      57  39  51 S3        30.26S
SILVER BAY     FAIR      54  30  40 SW3       30.27R
GRAND MARAIS     N/A     42  35  76 W9        30.27S
G MARAIS ARPRT FAIR      48  32  53 S6        30.26S
$$
MNZ029>031-032-039>041-046>048-054>057-064-201500-
   West Central Minnesota

CITY           SKY/WX    TMP DP  RH WIND       PRES   REMARKS
FERGUS FALLS   FAIR      54  37  54 SE5       30.26R
WHEATON        SUNNY     54  36  50 E5        30.30R
MORRIS         MOSUNNY   55  37  50 E10       30.26R
ALEXANDRIA     FAIR      55  38  52 E13       30.29R
ELBOW LAKE     FAIR      53  39  58 SE6       30.29R
WADENA         FAIR      50  39  66 CALM      30.29R
GLENWOOD       FAIR      52  36  54 E13       30.27S
APPLETON       MOSUNNY   54  37  54 E10       30.25F
BENSON         CLOUDY    54  37  54 E8G16     30.26F
ORTONVILLE     MOSUNNY   52  37  58 E10       30.26S
MADISON        MOSUNNY   55  39  54 E13       30.24F
WILLMAR        FAIR      52  36  54 E13       30.27S
$$
MNZ033>034-036-042>043-049>051-058-059-201500-
   Central Minnesota

CITY           SKY/WX    TMP DP  RH WIND       PRES   REMARKS
ST CLOUD       FAIR      50  32  50 NE12      30.27S
SAUK CENTRE    FAIR      50  33  52 E12G17    30.28R
PAYNESVILLE    FAIR      52  36  54 NE13      30.26F
AITKIN         FAIR      46  36  66 CALM      30.28S
PINE RIVER     FAIR      46  37  71 SE3       30.32R
BRAINERD       FAIR      52  35  52 E6        30.30R
STAPLES        FAIR      48  37  66 E5        30.29S
LONG PRAIRIE   FAIR      50  32  50 NE10      30.29R
LITTLE FALLS   FAIR      50  34  53 E6        30.29R
LITCHFIELD     FAIR      52  36  54 E13       30.25S
BUFFALO        FAIR      50  33  53 NE10      30.26R
MAPLE LAKE     FAIR      51  36  57 NE9       30.27R
HUTCHINSON     FAIR      53  37  54 NE15      30.25R
$$
MNZ037-044-045-052-053-201500-
   East Central Minnesota

CITY           SKY/WX    TMP DP  RH WIND       PRES   REMARKS
PRINCETON      FAIR      52  36  54 NE8       30.27S
MORA           FAIR      48  34  57 E5        30.30R
CAMBRIDGE      FAIR      52  36  54 NE7       30.27R
RUSH CITY      FAIR      49  37  62 NE5       30.28R
MOOSE LAKE     FAIR      46  32  57 NE5       30.28S
HINCKLEY       FAIR      48  36  61 E8        30.28S
CLOQUET        FAIR      48  28  46 E5        30.28S
MCGREGOR       FAIR      48  37  66 CALM      30.29S
$$
MNZ071>073-080-081-089-090-097-098-201500-
   Southwest Minnesota

CITY           SKY/WX    TMP DP  RH WIND       PRES   REMARKS
MONTEVIDEO     SUNNY     54  36  50 SE14      30.24F
GRANITE FALLS  CLOUDY    54  37  52 NE14      30.25S
CANBY          SUNNY     52  37  56 NE15      30.25F
MARSHALL       CLOUDY    49  37  63 NE14      30.22F
REDWOOD FALLS  CLOUDY    50  35  56 NE12G20   30.21F
OLIVIA         CLOUDY    54  34  47 NE15G21   30.22S
PIPESTONE      CLOUDY    46  37  71 E14G21    30.18S
WINDOM         CLOUDY    48  28  46 NE10G17   30.19R
WORTHINGTON    CLOUDY    48  40  73 NE16      30.19R
JACKSON        CLOUDY    46  37  71 NE15      30.19R
TRACY          CLOUDY    49  38  65 E13G18    30.22R
SLAYTON        CLOUDY    47  38  71 NE13G22   30.20S
$$
MNZ065>067-074>077-082>085-091>093-201500-
   South Central Minnesota

CITY           SKY/WX    TMP DP  RH WIND       PRES   REMARKS
MANKATO        CLOUDY    48  37  66 NE12      30.22R
NEW ULM        CLOUDY    50  36  57 E8G17     30.21S
ST JAMES       CLOUDY    48  37  66 NE12      30.21R
FAIRMONT       CLOUDY    50  40  68 NE12      30.19R
GLENCOE        FAIR      51  38  60 NE10      30.23R
FARIBAULT      CLOUDY    48  39  71 CALM      30.22R
OWATONNA       CLOUDY    48  39  71 NE12      30.20R
WASECA         CLOUDY    48  37  66 NE8       30.21R
ALBERT LEA     CLOUDY    50  39  66 NE10      30.19R
$$
MNZ078>079-086>088-094>096-201500-
   Southeast Minnesota

CITY           SKY/WX    TMP DP  RH WIND       PRES   REMARKS
ROCHESTER      CLOUDY    48  42  80 E12       30.20R
RED WING       CLOUDY    48  34  57 E7        30.22R
STANTON        CLOUDY    49  38  66 E9        30.22R
DODGE CENTER   CLOUDY    48  39  71 NE12      30.20R
WINONA         CLOUDY    50  41  71 E7        30.20R
AUSTIN         CLOUDY    48  43  81 NE8       30.18R
PRESTON        CLOUDY    47  42  81 NE9       30.19R
$$
ABBREVIATIONS USED IN REMARKS
   TC - TEMPERATURES IN CELSIUS
  WCI - WIND CHILL INDEX
   HX - HEAT INDEX
  VSB - VISIBILITY
$$




USA.gov is the U.S. government's official web portal to all federal, state and local government web resources and services.